THOR AGENA D R/B, 2825

Orbit data source: Space-Track

THOR AGENA D R/B, 2825 is space debris in LEO originally from a launch on Wed, 31 May 1967 UTC launched from the Air Force Western Test Range (AFWTR). Debris objects in space refer to the collection of defunct objects orbiting the Earth. Examples of debris include non-operational satellites, rocket bodies, and fragments generated from explosions, collisions, or faulty payload assembly.

Loading next visibility...
Identifier
2825, 1967-053B
Orbit
LEO
Country
Flag of USUS
Related business
Manufacturer
LMSC
Mission
Spacecraft
Bus & Motor
AGENA D, Unknown motor
Mass
600 kg wet, 600 kg dry
Launch date (UTC)
1967-05-31 (58 years ago)
Launch vehicle
Unknown
Launch site
Air Force Western Test Range (AFWTR)
Object type
Payload
Rocket body
Debris
Shape & HBR
Cyl + 1 Nozzle, 3.1 m
Radar Cross Section
8.306 m², Large (>1 m²)

Expand to show TLE details & history
Last TLE update: 1 day ago

TLE from 1 day ago
0 THOR AGENA D R/B
1 02825U 67053B   25241.74063232  .00000070  00000-0  87710-4 0  9993
2 02825  69.9745 339.2082 0007996 212.1467 147.9153 13.97649774 51373
Epoch: 2025-08-29T17:46Z
TLE epoch observation values (Epoch: 2025-08-29T17:46:30.632Z)
Latitude
Longitude
94.39563°
Altitude
909.191 km
Speed
7.395 km/s
True Right ascension
22h 36m 49s
True Declination
0° 00' 00"
Sunlit
Object was in full shadow at epoch
Visualization orbit readout
Latitude
Unknown
Longitude
Unknown
Altitude
Unknown
Speed
Unknown
Apparent Right ascension
Unknown
Apparent Declination
Unknown
Sunlit
N/A
Visualization observer readout
Local Sidereal Time
15:52:19
Azimuth
Unknown
Elevation
Unknown
Doppler factor
Unknown
Orbital elements
Apogee altitude
905.809 km
Perigee altitude
894.17 km
Semi-major axis
7,278.126 km
Eccentricity
0.0008
Inclination
69.9745°
RAAN
339.2082°
Arg. of periapsis
212.1467°
True anomaly
147.96393°
Mean anomaly
147.9153°
Eccentric anomaly
147.93962°
Mean motion
3.49554 °/min
Orbital period
102.99 mins
BSTAR
0.00008771
Loading maneuver chart data...
Computing Atmospheric mass density...
Loading historical data...
Loading historical data...
Loading historical data...
Loading historical data...
Loading historical data...
Loading historical data...
Loading historical data...

Documentation

Showing up to 5 results
|